contact:dominique.lefevre@mio.osupytheas.fr, maurice.libes@osupytheas.fr, didier.mallarino@osupytheas.fr
Project:EMSO http://www.emso-fr.org/EMSO-France
Depth: 2436.0 m
Title:EMSO Ligure Ouest : Data MII capteur CSTAR
DateTime,Latitude,Longitude,Instrument_Serial,Reference_Counts,Signal_Counts,Corrected_Signal_raw_counts,Calculated_Beam_c_inverse_meters,Internal_thermistor_counts
DateTime,Latitude,Longitude,Instrument_Serial,Reference_Counts,Signal_Counts,Corrected_Signal_raw_counts,Calculated_Beam_c_inverse_meters,Internal_thermistor_counts
2022-12-29T00:00:48,42.805,6.029,CST-1368DR,4430,4928,11824,01.113,551
2022-12-29T00:03:49,42.805,6.029,CST-1368DR,4430,4929,11828,01.111,551
2022-12-29T00:06:51,42.805,6.029,CST-1368DR,4430,4929,11826,01.112,551
2022-12-29T00:09:52,42.805,6.029,CST-1368DR,4430,4927,11823,01.113,550
2022-12-29T00:12:54,42.805,6.029,CST-1368DR,4430,4926,11821,01.114,551
2022-12-29T00:15:55,42.805,6.029,CST-1368DR,4430,4931,11833,01.110,551
2022-12-29T00:18:57,42.805,6.029,CST-1368DR,4430,4929,11828,01.111,551
2022-12-29T00:21:59,42.805,6.029,CST-1368DR,4430,4928,11825,01.112,551
2022-12-29T00:25:00,42.805,6.029,CST-1368DR,4430,4928,11824,01.113,551
2022-12-29T00:28:02,42.805,6.029,CST-1368DR,4430,4924,11815,01.116,551
2022-12-29T00:31:03,42.805,6.029,CST-1368DR,4430,4931,11832,01.110,551
2022-12-29T00:34:05,42.805,6.029,CST-1368DR,4429,4931,11835,01.109,551
2022-12-29T00:37:07,42.805,6.029,CST-1368DR,4430,4930,11829,01.111,551
2022-12-29T00:40:08,42.805,6.029,CST-1368DR,4430,4930,11829,01.111,551
2022-12-29T00:43:10,42.805,6.029,CST-1368DR,4430,4933,11836,01.109,551
2022-12-29T00:46:11,42.805,6.029,CST-1368DR,4430,4930,11829,01.111,551
2022-12-29T00:49:13,42.805,6.029,CST-1368DR,4430,4928,11824,01.113,551
2022-12-29T00:52:14,42.805,6.029,CST-1368DR,4430,4930,11830,01.111,551
2022-12-29T00:55:16,42.805,6.029,CST-1368DR,4430,4932,11835,01.109,551
2022-12-29T00:58:18,42.805,6.029,CST-1368DR,4430,4931,11831,01.110,551
2022-12-29T01:01:19,42.805,6.029,CST-1368DR,4430,4928,11824,01.113,551
2022-12-29T01:04:21,42.805,6.029,CST-1368DR,4430,4930,11829,01.111,551
2022-12-29T01:07:22,42.805,6.029,CST-1368DR,4430,4927,11823,01.113,551
2022-12-29T01:10:24,42.805,6.029,CST-1368DR,4430,4928,11824,01.113,551
2022-12-29T01:13:26,42.805,6.029,CST-1368DR,4430,4922,11811,01.117,551
2022-12-29T01:16:27,42.805,6.029,CST-1368DR,4430,4928,11824,01.113,551
2022-12-29T01:19:29,42.805,6.029,CST-1368DR,4430,4929,11827,01.112,551
2022-12-29T01:22:30,42.805,6.029,CST-1368DR,4430,4934,11839,01.108,551
2022-12-29T01:25:32,42.805,6.029,CST-1368DR,4430,4930,11829,01.111,551
2022-12-29T01:28:34,42.805,6.029,CST-1368DR,4430,4933,11838,01.108,551
2022-12-29T01:31:35,42.805,6.029,CST-1368DR,4430,4929,11827,01.112,551
2022-12-29T01:34:37,42.805,6.029,CST-1368DR,4430,4929,11827,01.112,551
2022-12-29T01:37:38,42.805,6.029,CST-1368DR,4430,4933,11837,01.108,551
2022-12-29T01:40:40,42.805,6.029,CST-1368DR,4430,4929,11827,01.112,551
2022-12-29T01:43:41,42.805,6.029,CST-1368DR,4430,4927,11823,01.113,551
2022-12-29T01:46:43,42.805,6.029,CST-1368DR,4430,4925,11817,01.115,551
2022-12-29T01:49:45,42.805,6.029,CST-1368DR,4430,4928,11824,01.113,551
2022-12-29T01:52:46,42.805,6.029,CST-1368DR,4430,4925,11817,01.115,551
2022-12-29T01:55:48,42.805,6.029,CST-1368DR,4430,4923,11812,01.117,551
2022-12-29T01:58:49,42.805,6.029,CST-1368DR,4430,4928,11825,01.112,551
2022-12-29T02:01:51,42.805,6.029,CST-1368DR,4430,4930,11829,01.111,551
2022-12-29T02:04:53,42.805,6.029,CST-1368DR,4430,4931,11832,01.110,551
2022-12-29T02:07:54,42.805,6.029,CST-1368DR,4430,4933,11836,01.109,551
2022-12-29T02:10:56,42.805,6.029,CST-1368DR,4429,4926,11823,01.113,551
2022-12-29T02:13:57,42.805,6.029,CST-1368DR,4429,4928,11827,01.112,551
2022-12-29T02:16:59,42.805,6.029,CST-1368DR,4430,4932,11835,01.109,551
2022-12-29T02:20:00,42.805,6.029,CST-1368DR,4430,4930,11830,01.111,551
2022-12-29T02:23:02,42.805,6.029,CST-1368DR,4429,4919,11805,01.119,551
2022-12-29T02:26:04,42.805,6.029,CST-1368DR,4429,4930,11831,01.110,551
2022-12-29T02:29:05,42.805,6.029,CST-1368DR,4429,4931,11835,01.109,551
2022-12-29T02:32:07,42.805,6.029,CST-1368DR,4429,4932,11838,01.108,551
2022-12-29T02:35:08,42.805,6.029,CST-1368DR,4430,4927,11823,01.113,551
2022-12-29T02:38:10,42.805,6.029,CST-1368DR,4429,4923,11814,01.116,551
2022-12-29T02:41:12,42.805,6.029,CST-1368DR,4430,4922,11811,01.117,551
2022-12-29T02:44:13,42.805,6.029,CST-1368DR,4430,4926,11820,01.114,551
2022-12-29T02:47:15,42.805,6.029,CST-1368DR,4430,4925,11818,01.115,551
2022-12-29T02:50:16,42.805,6.029,CST-1368DR,4430,4920,11805,01.119,551
2022-12-29T02:53:18,42.805,6.029,CST-1368DR,4430,4925,11817,01.115,551
2022-12-29T02:56:19,42.805,6.029,CST-1368DR,4430,4924,11816,01.115,551
2022-12-29T02:59:21,42.805,6.029,CST-1368DR,4430,4928,11826,01.112,551
2022-12-29T03:02:23,42.805,6.029,CST-1368DR,4429,4922,11813,01.116,551
2022-12-29T03:05:24,42.805,6.029,CST-1368DR,4429,4925,11819,01.114,551
2022-12-29T03:08:26,42.805,6.029,CST-1368DR,4430,4926,11821,01.114,551
2022-12-29T03:11:27,42.805,6.029,CST-1368DR,4429,4927,11825,01.112,551
2022-12-29T03:14:29,42.805,6.029,CST-1368DR,4429,4928,11826,01.112,551
2022-12-29T03:17:31,42.805,6.029,CST-1368DR,4429,4927,11826,01.112,551
2022-12-29T03:20:32,42.805,6.029,CST-1368DR,4430,4925,11818,01.115,551
2022-12-29T03:23:34,42.805,6.029,CST-1368DR,4429,4928,11827,01.112,551
2022-12-29T03:26:35,42.805,6.029,CST-1368DR,4429,4929,11830,01.111,551
2022-12-29T03:29:37,42.805,6.029,CST-1368DR,4430,4933,11836,01.109,551
2022-12-29T03:32:38,42.805,6.029,CST-1368DR,4429,4923,11814,01.116,551
2022-12-29T03:35:40,42.805,6.029,CST-1368DR,4430,4932,11834,01.109,551
2022-12-29T03:38:42,42.805,6.029,CST-1368DR,4429,4930,11832,01.110,551
2022-12-29T03:41:43,42.805,6.029,CST-1368DR,4429,4928,11827,01.112,551
2022-12-29T03:44:45,42.805,6.029,CST-1368DR,4429,4932,11836,01.109,551
2022-12-29T03:47:46,42.805,6.029,CST-1368DR,4429,4927,11825,01.112,551
2022-12-29T03:50:48,42.805,6.029,CST-1368DR,4429,4929,11829,01.111,551
2022-12-29T03:53:50,42.805,6.029,CST-1368DR,4430,4929,11827,01.112,551
2022-12-29T03:56:51,42.805,6.029,CST-1368DR,4429,4922,11814,01.116,551
2022-12-29T03:59:53,42.805,6.029,CST-1368DR,4429,4928,11827,01.112,551
2022-12-29T04:02:54,42.805,6.029,CST-1368DR,4429,4923,11816,01.115,551
2022-12-29T04:05:56,42.805,6.029,CST-1368DR,4429,4929,11830,01.111,551
2022-12-29T04:08:57,42.805,6.029,CST-1368DR,4429,4929,11830,01.111,551
2022-12-29T04:11:59,42.805,6.029,CST-1368DR,4429,4932,11836,01.109,551
2022-12-29T04:15:01,42.805,6.029,CST-1368DR,4429,4927,11826,01.112,551
2022-12-29T04:18:02,42.805,6.029,CST-1368DR,4429,4926,11823,01.113,551
2022-12-29T04:21:04,42.805,6.029,CST-1368DR,4429,4926,11822,01.113,551
2022-12-29T04:24:05,42.805,6.029,CST-1368DR,4429,4930,11832,01.110,551
2022-12-29T04:27:07,42.805,6.029,CST-1368DR,4429,4923,11815,01.116,551
2022-12-29T04:30:09,42.805,6.029,CST-1368DR,4429,4926,11823,01.113,551
2022-12-29T04:33:10,42.805,6.029,CST-1368DR,4429,4923,11815,01.116,551
2022-12-29T04:36:12,42.805,6.029,CST-1368DR,4429,4926,11823,01.113,551
2022-12-29T04:39:13,42.805,6.029,CST-1368DR,4429,4932,11836,01.109,551
2022-12-29T04:42:15,42.805,6.029,CST-1368DR,4429,4916,11797,01.122,551
2022-12-29T04:45:17,42.805,6.029,CST-1368DR,4429,4913,11791,01.124,551
2022-12-29T04:48:18,42.805,6.029,CST-1368DR,4429,4914,11794,01.123,551
2022-12-29T04:51:20,42.805,6.029,CST-1368DR,4429,4915,11796,01.122,551
2022-12-29T04:54:21,42.805,6.029,CST-1368DR,4429,4911,11787,01.125,551
2022-12-29T04:57:23,42.805,6.029,CST-1368DR,4429,4912,11788,01.125,551
2022-12-29T05:00:24,42.805,6.029,CST-1368DR,4429,4917,11801,01.120,551
2022-12-29T05:03:26,42.805,6.029,CST-1368DR,4429,4915,11795,01.122,551
2022-12-29T05:06:28,42.805,6.029,CST-1368DR,4429,4915,11796,01.122,551
2022-12-29T05:09:29,42.805,6.029,CST-1368DR,4429,4908,11780,01.128,551
2022-12-29T05:12:31,42.805,6.029,CST-1368DR,4429,4918,11803,01.120,551
2022-12-29T05:15:32,42.805,6.029,CST-1368DR,4429,4916,11798,01.121,551
2022-12-29T05:18:34,42.805,6.029,CST-1368DR,4429,4916,11799,01.121,551
2022-12-29T05:21:36,42.805,6.029,CST-1368DR,4429,4920,11808,01.118,551
2022-12-29T05:24:37,42.805,6.029,CST-1368DR,4429,4918,11804,01.119,551
2022-12-29T05:27:39,42.805,6.029,CST-1368DR,4429,4916,11797,01.122,551
2022-12-29T05:30:40,42.805,6.029,CST-1368DR,4429,4916,11799,01.121,551
2022-12-29T05:33:42,42.805,6.029,CST-1368DR,4429,4914,11793,01.123,551
2022-12-29T05:36:43,42.805,6.029,CST-1368DR,4429,4922,11812,01.117,551
2022-12-29T05:39:45,42.805,6.029,CST-1368DR,4429,4916,11798,01.121,551
2022-12-29T05:42:47,42.805,6.029,CST-1368DR,4429,4921,11810,01.117,551
2022-12-29T05:45:48,42.805,6.029,CST-1368DR,4429,4917,11801,01.120,551
2022-12-29T05:48:50,42.805,6.029,CST-1368DR,4429,4914,11793,01.123,551
2022-12-29T05:51:51,42.805,6.029,CST-1368DR,4429,4922,11813,01.116,551
2022-12-29T05:54:53,42.805,6.029,CST-1368DR,4429,4922,11813,01.116,551
2022-12-29T05:57:55,42.805,6.029,CST-1368DR,4429,4919,11805,01.119,551
2022-12-29T06:00:56,42.805,6.029,CST-1368DR,4429,4922,11812,01.117,551
2022-12-29T06:03:58,42.805,6.029,CST-1368DR,4429,4919,11806,01.119,551
2022-12-29T06:06:59,42.805,6.029,CST-1368DR,4429,4918,11802,01.120,551
2022-12-29T06:10:01,42.805,6.029,CST-1368DR,4429,4918,11803,01.120,551
2022-12-29T06:13:03,42.805,6.029,CST-1368DR,4429,4925,11820,01.114,551
2022-12-29T06:16:04,42.805,6.029,CST-1368DR,4429,4924,11817,01.115,551
2022-12-29T06:19:06,42.805,6.029,CST-1368DR,4429,4922,11812,01.117,551
2022-12-29T06:22:07,42.805,6.029,CST-1368DR,4429,4926,11821,01.114,551
2022-12-29T06:25:09,42.805,6.029,CST-1368DR,4429,4923,11814,01.116,551
2022-12-29T06:28:10,42.805,6.029,CST-1368DR,4429,4921,11811,01.117,551
2022-12-29T06:31:12,42.805,6.029,CST-1368DR,4429,4926,11821,01.114,551
2022-12-29T06:34:14,42.805,6.029,CST-1368DR,4429,4928,11826,01.112,551
2022-12-29T06:37:15,42.805,6.029,CST-1368DR,4429,4919,11806,01.119,551
2022-12-29T06:40:17,42.805,6.029,CST-1368DR,4429,4919,11805,01.119,551
2022-12-29T06:43:18,42.805,6.029,CST-1368DR,4429,4915,11796,01.122,551
2022-12-29T06:46:20,42.805,6.029,CST-1368DR,4429,4925,11819,01.114,551
2022-12-29T06:49:22,42.805,6.029,CST-1368DR,4429,4917,11800,01.121,551
2022-12-29T06:52:23,42.805,6.029,CST-1368DR,4429,4916,11799,01.121,551
2022-12-29T06:55:25,42.805,6.029,CST-1368DR,4429,4922,11813,01.116,551
2022-12-29T06:58:26,42.805,6.029,CST-1368DR,4429,4920,11807,01.118,551
2022-12-29T07:01:28,42.805,6.029,CST-1368DR,4429,4927,11826,01.112,551
2022-12-29T07:04:29,42.805,6.029,CST-1368DR,4429,4925,11820,01.114,551
2022-12-29T07:07:31,42.805,6.029,CST-1368DR,4429,4928,11826,01.112,551
2022-12-29T07:10:33,42.805,6.029,CST-1368DR,4429,4916,11797,01.122,551
2022-12-29T07:13:34,42.805,6.029,CST-1368DR,4429,4923,11815,01.116,551
2022-12-29T07:16:36,42.805,6.029,CST-1368DR,4429,4922,11812,01.117,551
2022-12-29T07:19:37,42.805,6.029,CST-1368DR,4429,4924,11818,01.115,551
2022-12-29T07:22:39,42.805,6.029,CST-1368DR,4429,4927,11826,01.112,551
2022-12-29T07:25:41,42.805,6.029,CST-1368DR,4429,4925,11821,01.114,551
2022-12-29T07:28:42,42.805,6.029,CST-1368DR,4429,4923,11814,01.116,551
2022-12-29T07:31:44,42.805,6.029,CST-1368DR,4429,4922,11813,01.116,551
2022-12-29T07:34:45,42.805,6.029,CST-1368DR,4429,4922,11812,01.117,551
2022-12-29T07:37:47,42.805,6.029,CST-1368DR,4429,4928,11827,01.112,551
2022-12-29T07:40:48,42.805,6.029,CST-1368DR,4429,4926,11823,01.113,551
2022-12-29T07:43:50,42.805,6.029,CST-1368DR,4429,4920,11808,01.118,551
2022-12-29T07:46:52,42.805,6.029,CST-1368DR,4429,4921,11810,01.117,551
2022-12-29T07:49:53,42.805,6.029,CST-1368DR,4429,4925,11821,01.114,551
2022-12-29T07:52:55,42.805,6.029,CST-1368DR,4429,4923,11815,01.116,551
2022-12-29T07:55:56,42.805,6.029,CST-1368DR,4429,4926,11823,01.113,551
2022-12-29T07:58:58,42.805,6.029,CST-1368DR,4429,4923,11816,01.115,551
2022-12-29T08:02:00,42.805,6.029,CST-1368DR,4429,4927,11824,01.113,551
2022-12-29T08:05:01,42.805,6.029,CST-1368DR,4429,4919,11805,01.119,551
2022-12-29T08:08:03,42.805,6.029,CST-1368DR,4429,4920,11809,01.118,551
2022-12-29T08:11:04,42.805,6.029,CST-1368DR,4429,4922,11812,01.117,551
2022-12-29T08:14:06,42.805,6.029,CST-1368DR,4429,4921,11811,01.117,551
2022-12-29T08:17:08,42.805,6.029,CST-1368DR,4429,4918,11804,01.119,551
2022-12-29T08:20:09,42.805,6.029,CST-1368DR,4429,4922,11812,01.117,551
2022-12-29T08:23:11,42.805,6.029,CST-1368DR,4429,4922,11813,01.116,551
2022-12-29T08:26:12,42.805,6.029,CST-1368DR,4429,4918,11804,01.119,551
2022-12-29T08:29:14,42.805,6.029,CST-1368DR,4429,4921,11809,01.118,551
2022-12-29T08:32:15,42.805,6.029,CST-1368DR,4429,4922,11812,01.117,551
2022-12-29T08:35:17,42.805,6.029,CST-1368DR,4429,4923,11814,01.116,551
2022-12-29T08:38:19,42.805,6.029,CST-1368DR,4429,4924,11818,01.115,551
2022-12-29T08:41:20,42.805,6.029,CST-1368DR,4429,4922,11813,01.116,551
2022-12-29T08:44:22,42.805,6.029,CST-1368DR,4429,4925,11820,01.114,551
2022-12-29T08:47:23,42.805,6.029,CST-1368DR,4429,4920,11807,01.118,551
2022-12-29T08:50:25,42.805,6.029,CST-1368DR,4429,4916,11799,01.121,551
2022-12-29T08:53:27,42.805,6.029,CST-1368DR,4429,4927,11826,01.112,551
2022-12-29T08:56:28,42.805,6.029,CST-1368DR,4429,4928,11827,01.112,551
2022-12-29T08:59:30,42.805,6.029,CST-1368DR,4429,4929,11829,01.111,551
2022-12-29T09:02:31,42.805,6.029,CST-1368DR,4429,4930,11831,01.110,551
2022-12-29T09:05:33,42.805,6.029,CST-1368DR,4429,4923,11815,01.116,551
2022-12-29T09:08:34,42.805,6.029,CST-1368DR,4429,4925,11820,01.114,551
2022-12-29T09:11:36,42.805,6.029,CST-1368DR,4429,4921,11811,01.117,551
2022-12-29T09:14:38,42.805,6.029,CST-1368DR,4429,4917,11800,01.121,551
2022-12-29T09:17:39,42.805,6.029,CST-1368DR,4429,4926,11822,01.113,551
2022-12-29T09:20:41,42.805,6.029,CST-1368DR,4429,4922,11813,01.116,551
2022-12-29T09:23:42,42.805,6.029,CST-1368DR,4429,4921,11811,01.117,551
2022-12-29T09:26:44,42.805,6.029,CST-1368DR,4429,4925,11819,01.114,551
2022-12-29T09:29:46,42.805,6.029,CST-1368DR,4429,4921,11809,01.118,551
2022-12-29T09:32:47,42.805,6.029,CST-1368DR,4429,4928,11827,01.112,551
2022-12-29T09:35:49,42.805,6.029,CST-1368DR,4429,4921,11811,01.117,551
2022-12-29T09:38:50,42.805,6.029,CST-1368DR,4429,4924,11817,01.115,551
2022-12-29T09:41:52,42.805,6.029,CST-1368DR,4429,4922,11813,01.116,551
2022-12-29T09:44:54,42.805,6.029,CST-1368DR,4429,4927,11824,01.113,551
2022-12-29T09:47:55,42.805,6.029,CST-1368DR,4429,4925,11820,01.114,551
2022-12-29T09:50:57,42.805,6.029,CST-1368DR,4429,4921,11811,01.117,551
2022-12-29T09:53:58,42.805,6.029,CST-1368DR,4429,4924,11817,01.115,551
2022-12-29T09:57:00,42.805,6.029,CST-1368DR,4429,4918,11803,01.120,551
2022-12-29T10:00:01,42.805,6.029,CST-1368DR,4429,4922,11812,01.117,551
2022-12-29T10:03:03,42.805,6.029,CST-1368DR,4429,4920,11809,01.118,551
2022-12-29T10:06:05,42.805,6.029,CST-1368DR,4429,4922,11812,01.117,551
2022-12-29T10:09:06,42.805,6.029,CST-1368DR,4429,4925,11820,01.114,551
2022-12-29T10:12:08,42.805,6.029,CST-1368DR,4429,4921,11811,01.117,551
2022-12-29T10:15:09,42.805,6.029,CST-1368DR,4429,4921,11810,01.117,551
2022-12-29T10:18:11,42.805,6.029,CST-1368DR,4429,4922,11813,01.116,551
2022-12-29T10:21:13,42.805,6.029,CST-1368DR,4429,4923,11815,01.116,551
2022-12-29T10:24:14,42.805,6.029,CST-1368DR,4429,4921,11810,01.117,551
2022-12-29T10:27:16,42.805,6.029,CST-1368DR,4429,4923,11816,01.115,551
2022-12-29T10:30:17,42.805,6.029,CST-1368DR,4429,4922,11812,01.117,551
2022-12-29T10:33:19,42.805,6.029,CST-1368DR,4429,4917,11800,01.121,551
2022-12-29T10:36:20,42.805,6.029,CST-1368DR,4429,4921,11810,01.117,551
2022-12-29T10:39:22,42.805,6.029,CST-1368DR,4429,4923,11814,01.116,551
2022-12-29T10:42:24,42.805,6.029,CST-1368DR,4429,4921,11809,01.118,551
2022-12-29T10:45:25,42.805,6.029,CST-1368DR,4429,4919,11806,01.119,551
2022-12-29T10:48:27,42.805,6.029,CST-1368DR,4429,4922,11814,01.116,551
2022-12-29T10:51:28,42.805,6.029,CST-1368DR,4429,4923,11815,01.116,551
2022-12-29T10:54:30,42.805,6.029,CST-1368DR,4429,4922,11812,01.117,551
2022-12-29T10:57:32,42.805,6.029,CST-1368DR,4429,4921,11811,01.117,551
2022-12-29T11:00:33,42.805,6.029,CST-1368DR,4429,4924,11818,01.115,551
2022-12-29T11:03:35,42.805,6.029,CST-1368DR,4429,4920,11807,01.118,551
2022-12-29T11:06:36,42.805,6.029,CST-1368DR,4429,4924,11817,01.115,551
2022-12-29T11:09:38,42.805,6.029,CST-1368DR,4429,4924,11818,01.115,551
2022-12-29T11:12:39,42.805,6.029,CST-1368DR,4429,4926,11823,01.113,551
2022-12-29T11:15:41,42.805,6.029,CST-1368DR,4429,4924,11818,01.115,551
2022-12-29T11:18:43,42.805,6.029,CST-1368DR,4429,4922,11812,01.117,551
2022-12-29T11:21:44,42.805,6.029,CST-1368DR,4429,4927,11825,01.112,551
2022-12-29T11:24:46,42.805,6.029,CST-1368DR,4429,4927,11824,01.113,551
2022-12-29T11:27:47,42.805,6.029,CST-1368DR,4429,4922,11812,01.117,551
2022-12-29T11:30:49,42.805,6.029,CST-1368DR,4429,4924,11817,01.115,551
2022-12-29T11:33:51,42.805,6.029,CST-1368DR,4429,4923,11815,01.116,551
2022-12-29T11:36:52,42.805,6.029,CST-1368DR,4429,4925,11820,01.114,551
2022-12-29T11:39:54,42.805,6.029,CST-1368DR,4429,4922,11812,01.117,551
2022-12-29T11:42:55,42.805,6.029,CST-1368DR,4429,4919,11806,01.119,551
2022-12-29T11:45:57,42.805,6.029,CST-1368DR,4429,4922,11813,01.116,551
2022-12-29T11:48:59,42.805,6.029,CST-1368DR,4429,4923,11815,01.116,551
2022-12-29T11:52:00,42.805,6.029,CST-1368DR,4429,4921,11811,01.117,551
2022-12-29T11:55:02,42.805,6.029,CST-1368DR,4429,4926,11821,01.114,551
2022-12-29T11:58:03,42.805,6.029,CST-1368DR,4429,4923,11814,01.116,551
2022-12-29T12:01:05,42.805,6.029,CST-1368DR,4429,4927,11826,01.112,551
2022-12-29T12:04:06,42.805,6.029,CST-1368DR,4429,4927,11824,01.113,551
2022-12-29T12:07:08,42.805,6.029,CST-1368DR,4429,4929,11829,01.111,551
2022-12-29T12:10:10,42.805,6.029,CST-1368DR,4429,4929,11830,01.111,551
2022-12-29T12:13:11,42.805,6.029,CST-1368DR,4429,4929,11829,01.111,551
2022-12-29T12:16:13,42.805,6.029,CST-1368DR,4429,4926,11821,01.114,551
2022-12-29T12:19:14,42.805,6.029,CST-1368DR,4429,4925,11820,01.114,551
2022-12-29T12:22:16,42.805,6.029,CST-1368DR,4429,4926,11821,01.114,551
2022-12-29T12:25:17,42.805,6.029,CST-1368DR,4429,4926,11821,01.114,551
2022-12-29T12:28:19,42.805,6.029,CST-1368DR,4429,4923,11815,01.116,551
2022-12-29T12:31:21,42.805,6.029,CST-1368DR,4429,4931,11833,01.110,550
2022-12-29T12:34:22,42.805,6.029,CST-1368DR,4429,4926,11823,01.113,551
2022-12-29T12:37:24,42.805,6.029,CST-1368DR,4429,4929,11830,01.111,551
2022-12-29T12:40:25,42.805,6.029,CST-1368DR,4429,4930,11832,01.110,551
2022-12-29T12:43:27,42.805,6.029,CST-1368DR,4429,4926,11823,01.113,551
2022-12-29T12:46:29,42.805,6.029,CST-1368DR,4429,4925,11820,01.114,551
2022-12-29T12:49:30,42.805,6.029,CST-1368DR,4429,4927,11825,01.112,551
2022-12-29T12:52:32,42.805,6.029,CST-1368DR,4429,4928,11827,01.112,551
2022-12-29T12:55:33,42.805,6.029,CST-1368DR,4429,4924,11817,01.115,551
2022-12-29T12:58:35,42.805,6.029,CST-1368DR,4429,4929,11830,01.111,551
2022-12-29T13:01:36,42.805,6.029,CST-1368DR,4429,4930,11831,01.110,551
2022-12-29T13:04:38,42.805,6.029,CST-1368DR,4429,4930,11832,01.110,551
2022-12-29T13:07:40,42.805,6.029,CST-1368DR,4429,4926,11823,01.113,551
2022-12-29T13:10:41,42.805,6.029,CST-1368DR,4429,4927,11825,01.112,551
2022-12-29T13:13:43,42.805,6.029,CST-1368DR,4429,4925,11821,01.114,551
2022-12-29T13:16:44,42.805,6.029,CST-1368DR,4429,4923,11816,01.115,551
2022-12-29T13:19:46,42.805,6.029,CST-1368DR,4429,4927,11826,01.112,551
2022-12-29T13:22:48,42.805,6.029,CST-1368DR,4429,4924,11818,01.115,551
2022-12-29T13:25:49,42.805,6.029,CST-1368DR,4429,4925,11819,01.114,551
2022-12-29T13:28:51,42.805,6.029,CST-1368DR,4429,4928,11827,01.112,551
2022-12-29T13:31:52,42.805,6.029,CST-1368DR,4429,4926,11822,01.113,551
2022-12-29T13:34:54,42.805,6.029,CST-1368DR,4429,4931,11835,01.109,551
2022-12-29T13:37:56,42.805,6.029,CST-1368DR,4429,4935,11843,01.106,551
2022-12-29T13:40:57,42.805,6.029,CST-1368DR,4429,4932,11836,01.109,551
2022-12-29T13:43:59,42.805,6.029,CST-1368DR,4429,4932,11836,01.109,551
2022-12-29T13:47:00,42.805,6.029,CST-1368DR,4429,4923,11815,01.116,551
2022-12-29T13:50:02,42.805,6.029,CST-1368DR,4429,4929,11829,01.111,551
2022-12-29T13:53:03,42.805,6.029,CST-1368DR,4429,4925,11821,01.114,551
2022-12-29T13:56:05,42.805,6.029,CST-1368DR,4429,4929,11829,01.111,551
2022-12-29T13:59:07,42.805,6.029,CST-1368DR,4429,4923,11815,01.116,551
2022-12-29T14:02:08,42.805,6.029,CST-1368DR,4429,4925,11819,01.114,551
2022-12-29T14:05:10,42.805,6.029,CST-1368DR,4429,4926,11822,01.113,551
2022-12-29T14:08:11,42.805,6.029,CST-1368DR,4429,4928,11827,01.112,551
2022-12-29T14:11:13,42.805,6.029,CST-1368DR,4429,4928,11827,01.112,551
2022-12-29T14:14:15,42.805,6.029,CST-1368DR,4429,4926,11823,01.113,551
2022-12-29T14:17:16,42.805,6.029,CST-1368DR,4429,4929,11830,01.111,551
2022-12-29T14:20:18,42.805,6.029,CST-1368DR,4429,4937,11850,01.104,551
2022-12-29T14:23:19,42.805,6.029,CST-1368DR,4429,4935,11844,01.106,551
2022-12-29T14:26:21,42.805,6.029,CST-1368DR,4429,4929,11829,01.111,551
2022-12-29T14:29:22,42.805,6.029,CST-1368DR,4429,4931,11835,01.109,551
2022-12-29T14:32:24,42.805,6.029,CST-1368DR,4429,4929,11829,01.111,551
2022-12-29T14:35:26,42.805,6.029,CST-1368DR,4429,4921,11810,01.117,551
2022-12-29T14:38:27,42.805,6.029,CST-1368DR,4429,4934,11842,01.107,551
2022-12-29T14:41:29,42.805,6.029,CST-1368DR,4429,4937,11848,01.105,551
2022-12-29T14:44:30,42.805,6.029,CST-1368DR,4429,4933,11839,01.108,551
2022-12-29T14:47:32,42.805,6.029,CST-1368DR,4429,4926,11823,01.113,551
2022-12-29T14:50:34,42.805,6.029,CST-1368DR,4429,4937,11848,01.105,551
2022-12-29T14:53:35,42.805,6.029,CST-1368DR,4429,4933,11838,01.108,551
2022-12-29T14:56:37,42.805,6.029,CST-1368DR,4429,4929,11829,01.111,551
2022-12-29T14:59:38,42.805,6.029,CST-1368DR,4429,4925,11820,01.114,551
2022-12-29T15:02:40,42.805,6.029,CST-1368DR,4429,4948,11875,01.095,551
2022-12-29T15:05:42,42.805,6.029,CST-1368DR,4429,4927,11825,01.112,551
2022-12-29T15:08:43,42.805,6.029,CST-1368DR,4429,4937,11848,01.105,551
2022-12-29T15:11:45,42.805,6.029,CST-1368DR,4429,4938,11851,01.104,551
2022-12-29T15:14:46,42.805,6.029,CST-1368DR,4429,4932,11837,01.108,551
2022-12-29T15:17:48,42.805,6.029,CST-1368DR,4429,4935,11845,01.106,551
2022-12-29T15:20:49,42.805,6.029,CST-1368DR,4429,4934,11842,01.107,551
2022-12-29T15:23:51,42.805,6.029,CST-1368DR,4429,4932,11838,01.108,551
2022-12-29T15:26:53,42.805,6.029,CST-1368DR,4429,4936,11846,01.105,551
2022-12-29T15:29:54,42.805,6.029,CST-1368DR,4429,4928,11826,01.112,551
2022-12-29T15:32:56,42.805,6.029,CST-1368DR,4429,4932,11837,01.108,551
2022-12-29T15:35:57,42.805,6.029,CST-1368DR,4429,4928,11827,01.112,551
2022-12-29T15:38:59,42.805,6.029,CST-1368DR,4429,4938,11852,01.103,551
2022-12-29T15:42:01,42.805,6.029,CST-1368DR,4429,4937,11850,01.104,551
2022-12-29T15:45:02,42.805,6.029,CST-1368DR,4429,4937,11848,01.105,551
2022-12-29T15:48:04,42.805,6.029,CST-1368DR,4429,4933,11839,01.108,551
2022-12-29T15:51:05,42.805,6.029,CST-1368DR,4429,4936,11847,01.105,551
2022-12-29T15:54:07,42.805,6.029,CST-1368DR,4429,4934,11842,01.107,551
2022-12-29T15:57:08,42.805,6.029,CST-1368DR,4429,4936,11845,01.106,551
2022-12-29T16:00:10,42.805,6.029,CST-1368DR,4429,4935,11844,01.106,551
2022-12-29T16:03:12,42.805,6.029,CST-1368DR,4429,4928,11826,01.112,551
2022-12-29T16:06:13,42.805,6.029,CST-1368DR,4429,4941,11859,01.101,551
2022-12-29T16:09:15,42.805,6.029,CST-1368DR,4429,4936,11846,01.105,551
2022-12-29T16:12:16,42.805,6.029,CST-1368DR,4429,4931,11833,01.110,551
2022-12-29T16:15:18,42.805,6.029,CST-1368DR,4429,4937,11850,01.104,551
2022-12-29T16:18:20,42.805,6.029,CST-1368DR,4429,4935,11844,01.106,551
2022-12-29T16:21:21,42.805,6.029,CST-1368DR,4429,4932,11836,01.109,551
2022-12-29T16:24:23,42.805,6.029,CST-1368DR,4429,4932,11838,01.108,551
2022-12-29T16:27:24,42.805,6.029,CST-1368DR,4429,4936,11846,01.105,551
2022-12-29T16:30:26,42.805,6.029,CST-1368DR,4429,4933,11840,01.107,551
2022-12-29T16:33:28,42.805,6.029,CST-1368DR,4429,4938,11850,01.104,551
2022-12-29T16:36:29,42.805,6.029,CST-1368DR,4429,4938,11851,01.104,551